Weather History for Warroad, MN

Change the Weather History Date:

Sunday, October 28, 2012

  Actual Average Record
Temperature  
Mean Temperature 24 °F -  
Max Temperature 32 °F 48 °F 66 °F (2005)
Min Temperature 15 °F 27 °F 11 °F (1980)
Degree Days  
Heating Degree Days 42    
Moisture  
Dew Point 17 °F    
Average Humidity 71    
Maximum Humidity 93    
Minimum Humidity 55    
Precipitation  
Precipitation 0.00 in - - ()
Sea Level Pressure  
Sea Level Pressure 30.32 in    
Wind  
Wind Speed 3 mph (NE)    
Max Wind Speed 12 mph    
Max Gust Speed -    
Visibility 10 miles    
Events      
Averages and records for this station are not official NWS values.
T = Trace of Precipitation, MM = Missing Value Source: NWS Daily Summary

Daily Weather History Graph

Daily Weather History Graph

Search for Another Location

Airport:

Trip Planner

Search our weather history database for the weather conditions in past years. The results will help you decide how hot, cold, wet, or windy it might be!

Date:

Astronomy

Oct. 28, 2012 Rise Set
Actual Time 8:02 AM CDT 6:06 PM CDT
Civil Twilight 7:30 AM CDT 6:39 PM CDT
Nautical Twilight 6:52 AM CDT 7:16 PM CDT
Astronomical Twilight 6:16 AM CDT 7:53 PM CDT
Moon 5:25 PM CDT (10/28) 6:54 AM CDT (10/28)
Length of Visible Light 11h 09m
Length of Day
10h 03m
Waxing Gibbous, 99% of the Moon is Illuminated
Oct 28
Waxing Gibbous
Oct 29
Full
Nov 6
Last Quarter
Nov 13
New
Nov 20
First Quarter

Hourly Weather History & Observations

Time (CDT) Temp. Windchill Dew Point Humidity Pressure Visibility Wind Dir Wind Speed Gust Speed Precip Events Conditions
12:14 AM 21.2 °F - 17.6 °F 86% 30.33 in 10.0 mi Calm Calm - N/A   Overcast
12:54 AM 19.4 °F - 17.6 °F 93% 30.33 in 10.0 mi Calm Calm - N/A   Mostly Cloudy
1:14 AM 19.4 °F - 15.8 °F 86% 30.33 in 10.0 mi Calm Calm - N/A   Scattered Clouds
1:33 AM 17.6 °F - 12.2 °F 79% 30.32 in 10.0 mi Calm Calm - N/A   Clear
1:54 AM 17.6 °F - 12.2 °F 79% 30.32 in 10.0 mi Calm Calm - N/A   Clear
2:14 AM 17.6 °F - 12.2 °F 79% 30.32 in 10.0 mi Calm Calm - N/A   Clear
2:33 AM 17.6 °F - 12.2 °F 79% 30.32 in 10.0 mi Calm Calm - N/A   Clear
2:54 AM 15.8 °F - 12.2 °F 86% 30.32 in 10.0 mi Calm Calm - N/A   Clear
3:14 AM 15.8 °F - 10.4 °F 79% 30.32 in 7.0 mi Calm Calm - N/A   Clear
3:33 AM 17.6 °F - 12.2 °F 79% 30.32 in 10.0 mi Calm Calm - N/A   Mostly Cloudy
3:54 AM 17.6 °F - 14.0 °F 86% 30.32 in 10.0 mi Calm Calm - N/A   Overcast
4:14 AM 17.6 °F - 14.0 °F 86% 30.31 in 10.0 mi Calm Calm - N/A   Overcast
4:33 AM 19.4 °F 14.3 °F 15.8 °F 86% 30.31 in 10.0 mi NNW 3.5 mph - N/A   Overcast
4:54 AM 19.4 °F 14.3 °F 15.8 °F 86% 30.32 in 10.0 mi NNW 3.5 mph - N/A   Overcast
5:14 AM 21.2 °F - 17.6 °F 86% 30.32 in 10.0 mi Calm Calm - N/A   Overcast
5:34 AM 21.2 °F - 17.6 °F 86% 30.32 in 10.0 mi Calm Calm - N/A   Overcast
5:54 AM 21.2 °F - 17.6 °F 86% 30.33 in 10.0 mi Calm Calm - N/A   Overcast
6:14 AM 21.2 °F - 17.6 °F 86% 30.33 in 10.0 mi Calm Calm - N/A   Overcast
6:34 AM 21.2 °F - 17.6 °F 86% 30.33 in 10.0 mi Calm Calm - N/A   Overcast
6:54 AM 21.2 °F - 17.6 °F 86% 30.33 in 10.0 mi Calm Calm - N/A   Overcast
7:14 AM 21.2 °F 16.4 °F 15.8 °F 80% 30.33 in 10.0 mi NW 3.5 mph - N/A   Overcast
7:34 AM 21.2 °F 14.9 °F 15.8 °F 80% 30.33 in 10.0 mi North 4.6 mph - N/A   Overcast
7:53 AM 21.2 °F 16.4 °F 15.8 °F 80% 30.33 in 10.0 mi NNW 3.5 mph - N/A   Mostly Cloudy
8:14 AM 21.2 °F 14.9 °F 15.8 °F 80% 30.33 in 10.0 mi NNW 4.6 mph - N/A   Scattered Clouds
8:34 AM 21.2 °F 13.6 °F 15.8 °F 80% 30.33 in 10.0 mi North 5.8 mph - N/A   Clear
8:54 AM 21.2 °F 14.9 °F 14.0 °F 74% 30.33 in 10.0 mi North 4.6 mph - N/A   Clear
9:14 AM 24.8 °F 16.9 °F 15.8 °F 69% 30.33 in 10.0 mi North 6.9 mph - N/A   Clear
9:34 AM 24.8 °F 16.9 °F 17.6 °F 74% 30.33 in 10.0 mi North 6.9 mph - N/A   Clear
9:54 AM 26.6 °F 21.2 °F 17.6 °F 69% 30.34 in 10.0 mi North 4.6 mph - N/A   Clear
10:14 AM 26.6 °F 19.1 °F 17.6 °F 69% 30.33 in 10.0 mi NNE 6.9 mph - N/A   Clear
10:34 AM 28.4 °F 21.2 °F 15.8 °F 59% 30.33 in 10.0 mi NNE 6.9 mph - N/A   Clear
10:54 AM 28.4 °F 22.2 °F 15.8 °F 59% 30.33 in 10.0 mi NE 5.8 mph - N/A   Clear
11:14 AM 28.4 °F 21.2 °F 15.8 °F 59% 30.33 in 10.0 mi NNE 6.9 mph - N/A   Clear
11:34 AM 28.4 °F 20.4 °F 15.8 °F 59% 30.33 in 10.0 mi NE 8.1 mph - N/A   Clear
11:54 AM 28.4 °F 23.3 °F 15.8 °F 59% 30.33 in 10.0 mi NE 4.6 mph - N/A   Clear
12:14 PM 30.2 °F 23.4 °F 15.8 °F 55% 30.33 in 10.0 mi ENE 6.9 mph - N/A   Clear
12:34 PM 30.2 °F 22.6 °F 17.6 °F 60% 30.32 in 10.0 mi ENE 8.1 mph - N/A   Clear
12:54 PM 30.2 °F 23.4 °F 17.6 °F 60% 30.32 in 10.0 mi NE 6.9 mph - N/A   Clear
1:14 PM 30.2 °F 23.4 °F 17.6 °F 60% 30.32 in 10.0 mi ENE 6.9 mph - N/A   Clear
1:33 PM 30.2 °F 23.4 °F 17.6 °F 60% 30.32 in 10.0 mi ENE 6.9 mph - N/A   Clear
1:54 PM 30.2 °F 22.6 °F 17.6 °F 60% 30.31 in 10.0 mi East 8.1 mph - N/A   Clear
2:14 PM 30.2 °F 24.3 °F 17.6 °F 60% 30.31 in 10.0 mi NE 5.8 mph - N/A   Clear
2:33 PM 30.2 °F 23.4 °F 19.4 °F 64% 30.31 in 10.0 mi NE 6.9 mph - N/A   Clear
2:54 PM 30.2 °F 23.4 °F 19.4 °F 64% 30.31 in 10.0 mi ENE 6.9 mph - N/A   Clear
3:14 PM 32.0 °F 25.6 °F 17.6 °F 55% 30.31 in 10.0 mi NE 6.9 mph - N/A   Clear
3:33 PM 32.0 °F 27.5 °F 19.4 °F 60% 30.31 in 10.0 mi ENE 4.6 mph - N/A   Clear
3:54 PM 30.2 °F 24.3 °F 17.6 °F 60% 30.31 in 10.0 mi ENE 5.8 mph - N/A   Clear
4:14 PM 30.2 °F 25.4 °F 19.4 °F 64% 30.30 in 10.0 mi ENE 4.6 mph - N/A   Clear
4:33 PM 28.4 °F 23.3 °F 19.4 °F 69% 30.31 in 10.0 mi NE 4.6 mph - N/A   Scattered Clouds
4:54 PM 28.4 °F 22.2 °F 19.4 °F 69% 30.30 in 10.0 mi NE 5.8 mph - N/A   Mostly Cloudy
5:14 PM 28.4 °F 21.2 °F 19.4 °F 69% 30.30 in 10.0 mi NE 6.9 mph - N/A   Scattered Clouds
5:33 PM 30.2 °F 21.9 °F 19.4 °F 64% 30.30 in 10.0 mi NE 9.2 mph - N/A   Clear
5:54 PM 28.4 °F 21.2 °F 19.4 °F 69% 30.30 in 10.0 mi ENE 6.9 mph - N/A   Clear
6:14 PM 28.4 °F 21.2 °F 19.4 °F 69% 30.30 in 10.0 mi NE 6.9 mph - N/A   Clear
6:34 PM 28.4 °F 22.2 °F 19.4 °F 69% 30.30 in 10.0 mi ENE 5.8 mph - N/A   Clear
6:54 PM 28.4 °F 19.7 °F 17.6 °F 64% 30.30 in 10.0 mi East 9.2 mph - N/A   Clear
7:14 PM 28.4 °F 19.7 °F 17.6 °F 64% 30.30 in 10.0 mi East 9.2 mph - N/A   Scattered Clouds
7:34 PM 28.4 °F 20.4 °F 17.6 °F 64% 30.30 in 10.0 mi East 8.1 mph - N/A   Scattered Clouds
7:54 PM 28.4 °F 21.2 °F 17.6 °F 64% 30.30 in 10.0 mi East 6.9 mph - N/A   Overcast
8:34 PM 28.4 °F 20.4 °F 17.6 °F 64% 30.30 in 10.0 mi ESE 8.1 mph - N/A   Mostly Cloudy
8:54 PM 28.4 °F 20.4 °F 19.4 °F 69% 30.30 in 10.0 mi ESE 8.1 mph - N/A   Mostly Cloudy
9:14 PM 28.4 °F 21.2 °F 19.4 °F 69% 30.30 in 10.0 mi SE 6.9 mph - N/A   Mostly Cloudy
9:33 PM 26.6 °F 19.1 °F 17.6 °F 69% 30.30 in 10.0 mi ESE 6.9 mph - N/A   Scattered Clouds
9:54 PM 28.4 °F 20.4 °F 17.6 °F 64% 30.30 in 10.0 mi ESE 8.1 mph - N/A   Scattered Clouds
10:14 PM 28.4 °F 19.7 °F 17.6 °F 64% 30.30 in 10.0 mi ESE 9.2 mph - N/A   Mostly Cloudy
10:33 PM 28.4 °F 18.5 °F 19.4 °F 69% 30.30 in 10.0 mi ESE 11.5 mph - N/A   Overcast
10:54 PM 28.4 °F 19.7 °F 19.4 °F 69% 30.31 in 10.0 mi ESE 9.2 mph - N/A   Overcast
11:14 PM 28.4 °F 19.1 °F 19.4 °F 69% 30.31 in 10.0 mi ESE 10.4 mph - N/A   Overcast
11:54 PM 28.4 °F 18.5 °F 19.4 °F 69% 30.31 in 10.0 mi ESE 11.5 mph - N/A   Scattered Clouds